Location: Le Moustier
(44.1000°N, 6.5167°E)
Time: 02:19:00
(UTC+00:00)

Cosmos 2333 Rocket - Pass Details

Date: 13 December 2025
Orbit: 838 x 865 km, 70.8° (Epoch: 17 January)

Event Time Altitude Azimuth Distance (km) Brightness Sun altitude
Rises 18:24:04 0° 185° (S) 3,411 5.5 -25.7°
Reaches altitude 10° 18:26:35 10° 179° (S) 2,483 4.7 -26.1°
Enters shadow 18:29:33 29° 161° (SSE) 1,516 3.4 -26.6°
